Weather History for Jackson, WY

Change the Weather History Date:

Thursday, July 12, 2012

  Actual Average Record
Temperature  
Mean Temperature 66 °F -  
Max Temperature 89 °F 78 °F 93 °F (2002)
Min Temperature 44 °F 41 °F 33 °F (1979)
Cooling Degree Days 2    
Growing Degree Days 16 (Base 50)    
Moisture  
Dew Point 43 °F    
Average Humidity 55    
Maximum Humidity 87    
Minimum Humidity 16    
Precipitation  
Precipitation 0.00 in - - ()
Sea Level Pressure  
Sea Level Pressure 30.26 in    
Wind  
Wind Speed 5 mph (NNE)    
Max Wind Speed 12 mph    
Max Gust Speed -    
Visibility 10 miles    
Events      
Averages and records for this station are not official NWS values.
T = Trace of Precipitation, MM = Missing Value Source: NWS Daily Summary

Daily Weather History Graph

Daily Weather History Graph

Search for Another Location

Airport:

Trip Planner

Search our weather history database for the weather conditions in past years. The results will help you decide how hot, cold, wet, or windy it might be!

Date:

Astronomy

Jul. 12, 2012 Rise Set
Actual Time 5:53 AM MDT 9:03 PM MDT
Civil Twilight 5:18 AM MDT 9:38 PM MDT
Nautical Twilight 4:33 AM MDT 10:23 PM MDT
Astronomical Twilight 3:38 AM MDT 11:17 PM MDT
Moon 1:03 AM MDT (7/12) 3:36 PM MDT (7/12)
Length of Visible Light 16h 19m
Length of Day
15h 10m
Waning Crescent, 34% of the Moon is Illuminated
Jul 12
Waning Crescent
Jul 18
New
Jul 26
First Quarter
Aug 1
Full
Aug 9
Last Quarter

Hourly Weather History & Observations

Time (MDT) Temp. Windchill Dew Point Humidity Pressure Visibility Wind Dir Wind Speed Gust Speed Precip Events Conditions
12:15 AM 59.0 °F - 42.8 °F 55% 30.29 in 10.0 mi North 11.5 mph - N/A   Clear
12:35 AM 57.2 °F - 44.6 °F 63% 30.30 in 10.0 mi NNW 10.4 mph - N/A   Clear
12:55 AM 57.2 °F - 44.6 °F 63% 30.28 in 10.0 mi NNE 8.1 mph - N/A   Partly Cloudy
1:15 AM 57.2 °F - 42.8 °F 59% 30.29 in 10.0 mi ENE 3.5 mph - N/A   Clear
1:35 AM 57.2 °F - 42.8 °F 59% 30.28 in 10.0 mi Calm Calm - N/A   Clear
1:55 AM 55.4 °F - 42.8 °F 63% 30.29 in 10.0 mi NW 5.8 mph - N/A   Clear
2:15 AM 55.4 °F - 44.6 °F 67% 30.29 in 10.0 mi Calm Calm - N/A   Clear
2:35 AM 53.6 °F - 44.6 °F 72% 30.30 in 10.0 mi North 4.6 mph - N/A   Clear
2:55 AM 53.6 °F - 42.8 °F 67% 30.30 in 10.0 mi Calm Calm - N/A   Clear
3:15 AM 48.2 °F - 42.8 °F 82% 30.30 in 10.0 mi NNE 3.5 mph - N/A   Clear
3:35 AM 48.2 °F - 42.8 °F 82% 30.30 in 10.0 mi NNE 6.9 mph - N/A   Clear
4:15 AM 48.2 °F - 42.8 °F 82% 30.29 in 10.0 mi North 4.6 mph - N/A   Clear
4:35 AM 48.2 °F - 42.8 °F 82% 30.29 in 10.0 mi NNE 3.5 mph - N/A   Clear
4:55 AM 46.4 °F 42.9 °F 42.8 °F 87% 30.30 in 10.0 mi NE 6.9 mph - N/A   Clear
5:15 AM 46.4 °F 45.2 °F 42.8 °F 87% 30.30 in 10.0 mi North 3.5 mph - N/A   Clear
5:35 AM 44.6 °F 40.2 °F 41.0 °F 87% 30.30 in 10.0 mi North 8.1 mph - N/A   Clear
6:15 AM 44.6 °F 40.7 °F 41.0 °F 87% 30.31 in 10.0 mi NNE 6.9 mph - N/A   Clear
6:35 AM 46.4 °F 44.3 °F 42.8 °F 87% 30.32 in 10.0 mi NNE 4.6 mph - N/A   Partly Cloudy
6:56 AM 46.4 °F - 42.8 °F 87% 30.32 in 10.0 mi Calm Calm - N/A   Partly Cloudy
7:59 AM 51.8 °F - 44.6 °F 76% 30.33 in 10.0 mi Calm Calm - N/A   Clear
8:59 AM 57.2 °F - 44.6 °F 63% 30.32 in 10.0 mi Calm Calm - N/A   Clear
9:52 AM 62.6 °F - 44.6 °F 52% 30.31 in 10.0 mi Calm Calm - N/A   Clear
10:52 AM 68.0 °F - 44.6 °F 43% 30.30 in 10.0 mi Calm Calm - N/A   Clear
11:53 AM 73.4 °F - 44.6 °F 36% 30.28 in 10.0 mi ESE 3.5 mph - N/A   Clear
12:53 PM 78.8 °F - 46.4 °F 32% 30.26 in 10.0 mi Calm Calm - N/A   Partly Cloudy
1:52 PM 78.8 °F - 46.4 °F 32% 30.23 in 10.0 mi WSW 3.5 mph - N/A   Partly Cloudy
2:51 PM 86.0 °F - 41.0 °F 20% 30.21 in 10.0 mi SSE 4.6 mph - N/A   Scattered Clouds
3:51 PM 89.6 °F - 37.4 °F 16% 30.17 in 10.0 mi South 8.1 mph - N/A   Scattered Clouds
4:55 PM 86.0 °F - 42.8 °F 22% 30.18 in 10.0 mi South 5.8 mph - N/A   Scattered Clouds
5:52 PM 87.8 °F - 37.4 °F 17% 30.17 in 10.0 mi SW 6.9 mph - N/A   Partly Cloudy
6:53 PM 87.8 °F - 37.4 °F 17% 30.15 in 10.0 mi South 5.8 mph - N/A   Partly Cloudy
7:52 PM 82.4 °F - 46.4 °F 28% 30.17 in 10.0 mi WSW 3.5 mph - N/A   Partly Cloudy
8:52 PM 75.2 °F - 46.4 °F 36% 30.17 in 10.0 mi NNW 3.5 mph - N/A   Partly Cloudy
9:15 PM 68.0 °F - 46.4 °F 46% 30.17 in 10.0 mi ENE 4.6 mph - N/A   Clear
9:35 PM 69.8 °F - 44.6 °F 40% 30.18 in 10.0 mi Calm Calm - N/A   Clear
9:55 PM 69.8 °F - 44.6 °F 40% 30.19 in 10.0 mi Calm Calm - N/A   Clear
10:15 PM 69.8 °F - 42.8 °F 38% 30.21 in 10.0 mi Calm Calm - N/A   Clear
10:35 PM 60.8 °F - 48.2 °F 63% 30.22 in 10.0 mi North 3.5 mph - N/A   Clear
10:55 PM 64.4 °F - 46.4 °F 52% 30.22 in 10.0 mi Calm Calm - N/A   Clear
11:15 PM 64.4 °F - 44.6 °F 49% 30.22 in 10.0 mi SSE 4.6 mph - N/A   Clear
11:35 PM 66.2 °F - 44.6 °F 46% 30.22 in 10.0 mi East 4.6 mph - N/A   Clear
11:55 PM 64.4 °F - 42.8 °F 45% 30.22 in 10.0 mi Calm Calm - N/A   Clear